owner,sensor,date,latitude,longitude,vertical_datum,wind_speed,wind_to_direction,wind_speed_of_gust,qcFlag 
COMPS,ioos:station:USF.COMPS:C10:1,2016-05-01T00:05:00Z,27.1690,-82.9260,3.0,2.907,173.067,4.243,'1111122,1111122,1111122' 
COMPS,ioos:station:USF.COMPS:C10:1,2016-05-01T00:35:00Z,27.1690,-82.9260,3.0,3.208,165.936,4.17,'1111122,1111122,1111122' 
COMPS,ioos:station:USF.COMPS:C10:1,2016-05-01T01:05:00Z,27.1690,-82.9260,3.0,2.515,135.456,3.177,'1111122,1111122,1111122' 
COMPS,ioos:station:USF.COMPS:C10:1,2016-05-01T01:35:00Z,27.1690,-82.9260,3.0,3.529,126.862,4.243,'1111122,1111122,1111122' 
COMPS,ioos:station:USF.COMPS:C10:1,2016-05-01T02:05:00Z,27.1690,-82.9260,3.0,-99.0,-99.0,-99.0,'1111122,1111122,1111122' 
COMPS,ioos:station:USF.COMPS:C10:1,2016-05-01T02:35:00Z,27.1690,-82.9260,3.0,-99.0,-99.0,-99.0,'1111122,1111122,1111122' 
COMPS,ioos:station:USF.COMPS:C10:1,2016-05-01T03:05:00Z,27.1690,-82.9260,3.0,-99.0,-99.0,-99.0,'1111122,1111122,1111122' 
COMPS,ioos:station:USF.COMPS:C10:1,2016-05-01T03:35:00Z,27.1690,-82.9260,3.0,-99.0,-99.0,-99.0,'1111122,1111122,1111122' 
COMPS,ioos:station:USF.COMPS:C10:1,2016-05-01T04:05:00Z,27.1690,-82.9260,3.0,-99.0,-99.0,-99.0,'1111122,1111122,1111122' 
COMPS,ioos:station:USF.COMPS:C10:1,2016-05-01T04:35:00Z,27.1690,-82.9260,3.0,-99.0,-99.0,-99.0,'1111122,1111122,1111122' 
COMPS,ioos:station:USF.COMPS:C10:1,2016-05-01T06:05:00Z,27.1690,-82.9260,3.0,7.065,120.863,8.607,'1111122,1111122,1111122' 
COMPS,ioos:station:USF.COMPS:C10:1,2016-05-01T06:35:00Z,27.1690,-82.9260,3.0,7.609,121.844,8.877,'1111122,1111122,1111122' 
COMPS,ioos:station:USF.COMPS:C10:1,2016-05-01T07:05:00Z,27.1690,-82.9260,3.0,7.384,118.056,8.703,'1111122,1111122,1111122' 
COMPS,ioos:station:USF.COMPS:C10:1,2016-05-01T07:35:00Z,27.1690,-82.9260,3.0,7.861,124.052,9.34,'1111122,1111122,1111122' 
COMPS,ioos:station:USF.COMPS:C10:1,2016-05-01T08:05:00Z,27.1690,-82.9260,3.0,8.098,124.726,9.76,'1111122,1111122,1111122' 
COMPS,ioos:station:USF.COMPS:C10:1,2016-05-01T08:35:00Z,27.1690,-82.9260,3.0,7.787,127.877,9.363,'1111122,1111122,1111122' 
COMPS,ioos:station:USF.COMPS:C10:1,2016-05-01T09:05:00Z,27.1690,-82.9260,3.0,8.145,128.955,9.677,'1111122,1111122,1111122' 
COMPS,ioos:station:USF.COMPS:C10:1,2016-05-01T09:35:00Z,27.1690,-82.9260,3.0,7.996,130.716,9.727,'1111122,1111122,1111122' 
COMPS,ioos:station:USF.COMPS:C10:1,2016-05-01T10:05:00Z,27.1690,-82.9260,3.0,-99.0,-99.0,-99.0,'1111122,1111122,1111122' 
COMPS,ioos:station:USF.COMPS:C10:1,2016-05-01T10:35:00Z,27.1690,-82.9260,3.0,-99.0,-99.0,-99.0,'1111122,1111122,1111122' 
COMPS,ioos:station:USF.COMPS:C10:1,2016-05-01T11:05:00Z,27.1690,-82.9260,3.0,-99.0,-99.0,-99.0,'1111122,1111122,1111122' 
COMPS,ioos:station:USF.COMPS:C10:1,2016-05-01T11:35:00Z,27.1690,-82.9260,3.0,-99.0,-99.0,-99.0,'1111122,1111122,1111122' 
COMPS,ioos:station:USF.COMPS:C10:1,2016-05-01T12:05:00Z,27.1690,-82.9260,3.0,6.487,122.107,7.703,'1111122,1111122,1111122' 
COMPS,ioos:station:USF.COMPS:C10:1,2016-05-01T12:35:00Z,27.1690,-82.9260,3.0,6.575,122.902,8.033,'1111122,1111122,1111122' 
COMPS,ioos:station:USF.COMPS:C10:1,2016-05-01T13:05:00Z,27.1690,-82.9260,3.0,5.984,117.577,7.19,'1111122,1111122,1111122' 
COMPS,ioos:station:USF.COMPS:C10:1,2016-05-01T13:35:00Z,27.1690,-82.9260,3.0,6.516,119.369,7.673,'1111122,1111122,1111122' 
COMPS,ioos:station:USF.COMPS:C10:1,2016-05-01T14:05:00Z,27.1690,-82.9260,3.0,6.332,119.614,7.54,'1111122,1111122,1111122' 
COMPS,ioos:station:USF.COMPS:C10:1,2016-05-01T14:35:00Z,27.1690,-82.9260,3.0,5.664,116.391,6.92,'1111122,1111122,1111122' 
COMPS,ioos:station:USF.COMPS:C10:1,2016-05-01T15:05:00Z,27.1690,-82.9260,3.0,5.24,117.64,6.697,'1111122,1111122,1111122' 
COMPS,ioos:station:USF.COMPS:C10:1,2016-05-01T15:35:00Z,27.1690,-82.9260,3.0,6.213,133.029,7.737,'1111122,1111122,1111122' 
COMPS,ioos:station:USF.COMPS:C10:1,2016-05-01T16:05:00Z,27.1690,-82.9260,3.0,6.001,132.996,7.01,'1111122,1111122,1111122' 
COMPS,ioos:station:USF.COMPS:C10:1,2016-05-01T16:35:00Z,27.1690,-82.9260,3.0,5.37,134.146,6.333,'1111122,1111122,1111122' 
COMPS,ioos:station:USF.COMPS:C10:1,2016-05-01T17:05:00Z,27.1690,-82.9260,3.0,4.789,133.63,5.87,'1111122,1111122,1111122' 
COMPS,ioos:station:USF.COMPS:C10:1,2016-05-01T17:35:00Z,27.1690,-82.9260,3.0,4.302,134.379,5.21,'1111122,1111122,1111122' 
COMPS,ioos:station:USF.COMPS:C10:1,2016-05-01T18:05:00Z,27.1690,-82.9260,3.0,4.13,151.769,5.24,'1111122,1111122,1111122' 
COMPS,ioos:station:USF.COMPS:C10:1,2016-05-01T18:35:00Z,27.1690,-82.9260,3.0,3.919,158.752,4.713,'1111122,1111122,1111122' 
COMPS,ioos:station:USF.COMPS:C10:1,2016-05-01T19:05:00Z,27.1690,-82.9260,3.0,3.67,161.843,4.48,'1111122,1111122,1111122' 
COMPS,ioos:station:USF.COMPS:C10:1,2016-05-01T19:35:00Z,27.1690,-82.9260,3.0,3.603,179.122,4.337,'1111122,1111122,1111122' 
COMPS,ioos:station:USF.COMPS:C10:1,2016-05-01T20:05:00Z,27.1690,-82.9260,3.0,4.184,182.555,5.357,'1111122,1111122,1111122' 
COMPS,ioos:station:USF.COMPS:C10:1,2016-05-01T20:35:00Z,27.1690,-82.9260,3.0,3.612,198.702,4.253,'1111122,1111122,1111122' 
COMPS,ioos:station:USF.COMPS:C10:1,2016-05-01T21:05:00Z,27.1690,-82.9260,3.0,3.69,203.96,4.383,'1111122,1111122,1111122' 
COMPS,ioos:station:USF.COMPS:C10:1,2016-05-01T21:35:00Z,27.1690,-82.9260,3.0,3.527,218.718,4.297,'1111122,1111122,1111122' 
COMPS,ioos:station:USF.COMPS:C10:1,2016-05-01T22:05:00Z,27.1690,-82.9260,3.0,3.367,232.239,4.067,'1111122,1111122,1111122' 
COMPS,ioos:station:USF.COMPS:C10:1,2016-05-01T22:35:00Z,27.1690,-82.9260,3.0,3.204,241.023,4.06,'1111122,1111122,1111122' 
COMPS,ioos:station:USF.COMPS:C10:1,2016-05-01T23:05:00Z,27.1690,-82.9260,3.0,2.418,261.373,2.94,'1111122,1111122,1111122' 
COMPS,ioos:station:USF.COMPS:C10:1,2016-05-01T23:35:00Z,27.1690,-82.9260,3.0,1.597,278.545,2.117,'1111122,1111122,1111122' 
COMPS,ioos:station:USF.COMPS:C10:1,2016-05-02T00:05:00Z,27.1690,-82.9260,3.0,1.549,338.587,1.957,'1111122,1111122,1111122' 
COMPS,ioos:station:USF.COMPS:C10:1,2016-05-02T00:35:00Z,27.1690,-82.9260,3.0,1.054,12.667,1.4,'1111122,1111122,1111122' 
COMPS,ioos:station:USF.COMPS:C10:1,2016-05-02T01:05:00Z,27.1690,-82.9260,3.0,1.433,26.088,1.95,'1111122,1111122,1111122' 
COMPS,ioos:station:USF.COMPS:C10:1,2016-05-02T01:35:00Z,27.1690,-82.9260,3.0,0.346,339.869,0.763,'1111122,1111122,1111122' 
COMPS,ioos:station:USF.COMPS:C10:1,2016-05-02T04:05:00Z,27.1690,-82.9260,3.0,3.259,55.786,4.037,'1111122,1111122,1111122' 
COMPS,ioos:station:USF.COMPS:C10:1,2016-05-02T04:35:00Z,27.1690,-82.9260,3.0,3.158,56.794,3.9,'1111122,1111122,1111122' 
COMPS,ioos:station:USF.COMPS:C10:1,2016-05-02T06:05:00Z,27.1690,-82.9260,3.0,2.649,67.209,3.227,'1111122,1111122,1111122' 
COMPS,ioos:station:USF.COMPS:C10:1,2016-05-02T06:35:00Z,27.1690,-82.9260,3.0,1.646,65.796,2.463,'1111122,1111122,1111122' 
COMPS,ioos:station:USF.COMPS:C10:1,2016-05-02T07:05:00Z,27.1690,-82.9260,3.0,1.023,58.446,1.61,'1111122,1111122,1111122' 
COMPS,ioos:station:USF.COMPS:C10:1,2016-05-02T07:35:00Z,27.1690,-82.9260,3.0,1.377,86.345,1.893,'1111122,1111122,1111122' 
COMPS,ioos:station:USF.COMPS:C10:1,2016-05-02T08:05:00Z,27.1690,-82.9260,3.0,2.983,119.169,4.277,'1111122,1111122,1111122' 
COMPS,ioos:station:USF.COMPS:C10:1,2016-05-02T08:35:00Z,27.1690,-82.9260,3.0,-99.0,-99.0,-99.0,'1111122,1111122,1111122' 
COMPS,ioos:station:USF.COMPS:C10:1,2016-05-02T09:05:00Z,27.1690,-82.9260,3.0,-99.0,-99.0,-99.0,'1111122,1111122,1111122' 
COMPS,ioos:station:USF.COMPS:C10:1,2016-05-02T09:35:00Z,27.1690,-82.9260,3.0,-99.0,-99.0,-99.0,'1111122,1111122,1111122' 
COMPS,ioos:station:USF.COMPS:C10:1,2016-05-02T10:05:00Z,27.1690,-82.9260,3.0,-99.0,-99.0,-99.0,'1111122,1111122,1111122' 
COMPS,ioos:station:USF.COMPS:C10:1,2016-05-02T10:35:00Z,27.1690,-82.9260,3.0,4.794,148.633,5.917,'1111122,1111122,1111122' 
COMPS,ioos:station:USF.COMPS:C10:1,2016-05-02T11:05:00Z,27.1690,-82.9260,3.0,4.577,150.136,5.677,'1111122,1111122,1111122' 
COMPS,ioos:station:USF.COMPS:C10:1,2016-05-02T11:35:00Z,27.1690,-82.9260,3.0,-99.0,-99.0,-99.0,'1111122,1111122,1111122' 
COMPS,ioos:station:USF.COMPS:C10:1,2016-05-02T12:05:00Z,27.1690,-82.9260,3.0,-99.0,-99.0,-99.0,'1111122,1111122,1111122' 
COMPS,ioos:station:USF.COMPS:C10:1,2016-05-02T12:35:00Z,27.1690,-82.9260,3.0,-99.0,-99.0,-99.0,'1111122,1111122,1111122' 
COMPS,ioos:station:USF.COMPS:C10:1,2016-05-02T13:05:00Z,27.1690,-82.9260,3.0,-99.0,-99.0,-99.0,'1111122,1111122,1111122' 
COMPS,ioos:station:USF.COMPS:C10:1,2016-05-02T13:35:00Z,27.1690,-82.9260,3.0,-99.0,-99.0,-99.0,'1111122,1111122,1111122' 
COMPS,ioos:station:USF.COMPS:C10:1,2016-05-02T14:05:00Z,27.1690,-82.9260,3.0,-99.0,-99.0,-99.0,'1111122,1111122,1111122' 
COMPS,ioos:station:USF.COMPS:C10:1,2016-05-02T14:35:00Z,27.1690,-82.9260,3.0,-99.0,-99.0,-99.0,'1111122,1111122,1111122' 
COMPS,ioos:station:USF.COMPS:C10:1,2016-05-02T15:05:00Z,27.1690,-82.9260,3.0,-99.0,-99.0,-99.0,'1111122,1111122,1111122' 
COMPS,ioos:station:USF.COMPS:C10:1,2016-05-02T15:35:00Z,27.1690,-82.9260,3.0,-99.0,-99.0,-99.0,'1111122,1111122,1111122' 
COMPS,ioos:station:USF.COMPS:C10:1,2016-05-02T16:05:00Z,27.1690,-82.9260,3.0,-99.0,-99.0,-99.0,'1111122,1111122,1111122' 
COMPS,ioos:station:USF.COMPS:C10:1,2016-05-02T16:35:00Z,27.1690,-82.9260,3.0,-99.0,-99.0,-99.0,'1111122,1111122,1111122' 
COMPS,ioos:station:USF.COMPS:C10:1,2016-05-02T17:05:00Z,27.1690,-82.9260,3.0,-99.0,-99.0,-99.0,'1111122,1111122,1111122' 
COMPS,ioos:station:USF.COMPS:C10:1,2016-05-02T17:35:00Z,27.1690,-82.9260,3.0,-99.0,-99.0,-99.0,'1111122,1111122,1111122' 
COMPS,ioos:station:USF.COMPS:C10:1,2016-05-02T18:05:00Z,27.1690,-82.9260,3.0,-99.0,-99.0,-99.0,'1111122,1111122,1111122' 
COMPS,ioos:station:USF.COMPS:C10:1,2016-05-02T18:35:00Z,27.1690,-82.9260,3.0,-99.0,-99.0,-99.0,'1111122,1111122,1111122' 
COMPS,ioos:station:USF.COMPS:C10:1,2016-05-02T19:05:00Z,27.1690,-82.9260,3.0,-99.0,-99.0,-99.0,'1111122,1111122,1111122' 
COMPS,ioos:station:USF.COMPS:C10:1,2016-05-02T19:35:00Z,27.1690,-82.9260,3.0,-99.0,-99.0,-99.0,'1111122,1111122,1111122' 
COMPS,ioos:station:USF.COMPS:C10:1,2016-05-02T20:05:00Z,27.1690,-82.9260,3.0,-99.0,-99.0,-99.0,'1111122,1111122,1111122' 
COMPS,ioos:station:USF.COMPS:C10:1,2016-05-02T20:35:00Z,27.1690,-82.9260,3.0,-99.0,-99.0,-99.0,'1111122,1111122,1111122' 
COMPS,ioos:station:USF.COMPS:C10:1,2016-05-02T21:05:00Z,27.1690,-82.9260,3.0,2.245,200.557,2.863,'1111122,1111122,1111122' 
COMPS,ioos:station:USF.COMPS:C10:1,2016-05-02T21:35:00Z,27.1690,-82.9260,3.0,2.467,198.893,3.007,'1111122,1111122,1111122' 
COMPS,ioos:station:USF.COMPS:C10:1,2016-05-02T22:05:00Z,27.1690,-82.9260,3.0,2.788,197.757,3.61,'1111122,1111122,1111122' 
COMPS,ioos:station:USF.COMPS:C10:1,2016-05-02T22:35:00Z,27.1690,-82.9260,3.0,3.126,219.057,3.71,'1111122,1111122,1111122' 
COMPS,ioos:station:USF.COMPS:C10:1,2016-05-02T23:05:00Z,27.1690,-82.9260,3.0,3.316,225.927,4.063,'1111122,1111122,1111122' 
COMPS,ioos:station:USF.COMPS:C10:1,2016-05-02T23:35:00Z,27.1690,-82.9260,3.0,3.194,230.912,3.617,'1111122,1111122,1111122' 
COMPS,ioos:station:USF.COMPS:C10:1,2016-05-03T00:05:00Z,27.1690,-82.9260,3.0,2.955,232.963,3.523,'1111122,1111122,1111122' 
COMPS,ioos:station:USF.COMPS:C10:1,2016-05-03T00:35:00Z,27.1690,-82.9260,3.0,3.74,235.541,4.51,'1111122,1111122,1111122' 
COMPS,ioos:station:USF.COMPS:C10:1,2016-05-03T01:05:00Z,27.1690,-82.9260,3.0,3.203,231.654,3.843,'1111122,1111122,1111122' 
COMPS,ioos:station:USF.COMPS:C10:1,2016-05-03T01:35:00Z,27.1690,-82.9260,3.0,3.202,247.275,4.003,'1111122,1111122,1111122' 
COMPS,ioos:station:USF.COMPS:C10:1,2016-05-03T02:05:00Z,27.1690,-82.9260,3.0,2.912,234.605,3.55,'1111122,1111122,1111122' 
COMPS,ioos:station:USF.COMPS:C10:1,2016-05-03T02:35:00Z,27.1690,-82.9260,3.0,2.464,241.231,2.95,'1111122,1111122,1111122' 
COMPS,ioos:station:USF.COMPS:C10:1,2016-05-03T03:05:00Z,27.1690,-82.9260,3.0,2.169,255.929,2.723,'1111122,1111122,1111122' 
COMPS,ioos:station:USF.COMPS:C10:1,2016-05-03T03:35:00Z,27.1690,-82.9260,3.0,2.015,255.815,2.8,'1111122,1111122,1111122' 
COMPS,ioos:station:USF.COMPS:C10:1,2016-05-03T05:05:00Z,27.1690,-82.9260,3.0,1.989,215.569,2.557,'1111122,1111122,1111122' 
COMPS,ioos:station:USF.COMPS:C10:1,2016-05-03T05:35:00Z,27.1690,-82.9260,3.0,2.327,198.579,3.19,'1111122,1111122,1111122' 
COMPS,ioos:station:USF.COMPS:C10:1,2016-05-03T06:05:00Z,27.1690,-82.9260,3.0,3.381,191.009,4.183,'1111122,1111122,1111122' 
COMPS,ioos:station:USF.COMPS:C10:1,2016-05-03T06:35:00Z,27.1690,-82.9260,3.0,4.24,183.135,5.12,'1111122,1111122,1111122' 
COMPS,ioos:station:USF.COMPS:C10:1,2016-05-03T07:05:00Z,27.1690,-82.9260,3.0,4.151,177.974,4.927,'1111122,1111122,1111122' 
COMPS,ioos:station:USF.COMPS:C10:1,2016-05-03T07:35:00Z,27.1690,-82.9260,3.0,3.893,168.585,4.717,'1111122,1111122,1111122' 
COMPS,ioos:station:USF.COMPS:C10:1,2016-05-03T08:05:00Z,27.1690,-82.9260,3.0,3.607,164.223,4.237,'1111122,1111122,1111122' 
COMPS,ioos:station:USF.COMPS:C10:1,2016-05-03T08:35:00Z,27.1690,-82.9260,3.0,4.143,165.679,4.823,'1111122,1111122,1111122' 
COMPS,ioos:station:USF.COMPS:C10:1,2016-05-03T09:05:00Z,27.1690,-82.9260,3.0,4.888,166.47,6.14,'1111122,1111122,1111122' 
COMPS,ioos:station:USF.COMPS:C10:1,2016-05-03T09:35:00Z,27.1690,-82.9260,3.0,5.183,169.3,6.48,'1111122,1111122,1111122' 
COMPS,ioos:station:USF.COMPS:C10:1,2016-05-03T10:05:00Z,27.1690,-82.9260,3.0,5.221,167.281,6.35,'1111122,1111122,1111122' 
COMPS,ioos:station:USF.COMPS:C10:1,2016-05-03T10:35:00Z,27.1690,-82.9260,3.0,3.762,170.207,4.887,'1111122,1111122,1111122' 
COMPS,ioos:station:USF.COMPS:C10:1,2016-05-03T11:05:00Z,27.1690,-82.9260,3.0,2.809,167.501,3.667,'1111122,1111122,1111122' 
COMPS,ioos:station:USF.COMPS:C10:1,2016-05-03T11:35:00Z,27.1690,-82.9260,3.0,2.181,166.358,3.017,'1111122,1111122,1111122' 
COMPS,ioos:station:USF.COMPS:C10:1,2016-05-03T12:05:00Z,27.1690,-82.9260,3.0,1.545,185.252,2.03,'1111122,1111122,1111122' 
COMPS,ioos:station:USF.COMPS:C10:1,2016-05-03T12:35:00Z,27.1690,-82.9260,3.0,-99.0,-99.0,-99.0,'1111122,1111122,1111122' 
COMPS,ioos:station:USF.COMPS:C10:1,2016-05-03T13:05:00Z,27.1690,-82.9260,3.0,1.562,169.147,2.273,'1111122,1111122,1111122' 
COMPS,ioos:station:USF.COMPS:C10:1,2016-05-03T13:35:00Z,27.1690,-82.9260,3.0,2.165,176.26,2.703,'1111122,1111122,1111122' 
COMPS,ioos:station:USF.COMPS:C10:1,2016-05-03T14:05:00Z,27.1690,-82.9260,3.0,-99.0,-99.0,-99.0,'1111122,1111122,1111122' 
COMPS,ioos:station:USF.COMPS:C10:1,2016-05-03T14:35:00Z,27.1690,-82.9260,3.0,2.815,181.962,3.533,'1111122,1111122,1111122' 
COMPS,ioos:station:USF.COMPS:C10:1,2016-05-03T15:05:00Z,27.1690,-82.9260,3.0,3.352,180.678,4.083,'1111122,1111122,1111122' 
COMPS,ioos:station:USF.COMPS:C10:1,2016-05-03T15:35:00Z,27.1690,-82.9260,3.0,3.366,169.727,3.987,'1111122,1111122,1111122' 
COMPS,ioos:station:USF.COMPS:C10:1,2016-05-03T16:05:00Z,27.1690,-82.9260,3.0,3.241,169.339,3.91,'1111122,1111122,1111122' 
COMPS,ioos:station:USF.COMPS:C10:1,2016-05-03T16:35:00Z,27.1690,-82.9260,3.0,3.054,168.488,3.657,'1111122,1111122,1111122' 
COMPS,ioos:station:USF.COMPS:C10:1,2016-05-03T17:05:00Z,27.1690,-82.9260,3.0,2.686,196.01,3.417,'1111122,1111122,1111122' 
COMPS,ioos:station:USF.COMPS:C10:1,2016-05-03T17:35:00Z,27.1690,-82.9260,3.0,-99.0,-99.0,-99.0,'1111122,1111122,1111122' 
COMPS,ioos:station:USF.COMPS:C10:1,2016-05-03T18:05:00Z,27.1690,-82.9260,3.0,-99.0,-99.0,-99.0,'1111122,1111122,1111122' 
COMPS,ioos:station:USF.COMPS:C10:1,2016-05-03T18:35:00Z,27.1690,-82.9260,3.0,-99.0,-99.0,-99.0,'1111122,1111122,1111122' 
COMPS,ioos:station:USF.COMPS:C10:1,2016-05-03T19:05:00Z,27.1690,-82.9260,3.0,-99.0,-99.0,-99.0,'1111122,1111122,1111122' 
COMPS,ioos:station:USF.COMPS:C10:1,2016-05-03T19:35:00Z,27.1690,-82.9260,3.0,3.413,208.845,4.023,'1111122,1111122,1111122' 
COMPS,ioos:station:USF.COMPS:C10:1,2016-05-03T20:05:00Z,27.1690,-82.9260,3.0,2.519,230.018,2.997,'1111122,1111122,1111122' 
COMPS,ioos:station:USF.COMPS:C10:1,2016-05-03T20:35:00Z,27.1690,-82.9260,3.0,2.354,241.298,3.027,'1111122,1111122,1111122' 
COMPS,ioos:station:USF.COMPS:C10:1,2016-05-03T21:05:00Z,27.1690,-82.9260,3.0,3.465,227.005,4.813,'1111122,1111122,1111122' 
COMPS,ioos:station:USF.COMPS:C10:1,2016-05-03T21:35:00Z,27.1690,-82.9260,3.0,2.6,235.464,3.51,'1111122,1111122,1111122' 
COMPS,ioos:station:USF.COMPS:C10:1,2016-05-03T22:05:00Z,27.1690,-82.9260,3.0,2.429,226.874,3.51,'1111122,1111122,1111122' 
COMPS,ioos:station:USF.COMPS:C10:1,2016-05-03T22:35:00Z,27.1690,-82.9260,3.0,3.196,241.931,3.92,'1111122,1111122,1111122' 
COMPS,ioos:station:USF.COMPS:C10:1,2016-05-03T23:05:00Z,27.1690,-82.9260,3.0,3.809,261.095,4.727,'1111122,1111122,1111122' 
COMPS,ioos:station:USF.COMPS:C10:1,2016-05-03T23:35:00Z,27.1690,-82.9260,3.0,3.609,276.633,4.563,'1111122,1111122,1111122' 
COMPS,ioos:station:USF.COMPS:C10:1,2016-05-04T00:05:00Z,27.1690,-82.9260,3.0,4.021,254.815,4.943,'1111122,1111122,1111122' 
COMPS,ioos:station:USF.COMPS:C10:1,2016-05-04T00:35:00Z,27.1690,-82.9260,3.0,4.855,235.329,5.917,'1111122,1111122,1111122' 
COMPS,ioos:station:USF.COMPS:C10:1,2016-05-04T01:05:00Z,27.1690,-82.9260,3.0,4.232,219.773,5.477,'1111122,1111122,1111122' 
COMPS,ioos:station:USF.COMPS:C10:1,2016-05-04T01:35:00Z,27.1690,-82.9260,3.0,3.931,211.136,4.803,'1111122,1111122,1111122' 
COMPS,ioos:station:USF.COMPS:C10:1,2016-05-04T02:05:00Z,27.1690,-82.9260,3.0,3.604,224.751,4.267,'1111122,1111122,1111122' 
COMPS,ioos:station:USF.COMPS:C10:1,2016-05-04T02:35:00Z,27.1690,-82.9260,3.0,4.064,219.917,4.83,'1111122,1111122,1111122' 
COMPS,ioos:station:USF.COMPS:C10:1,2016-05-04T03:05:00Z,27.1690,-82.9260,3.0,2.84,238.548,4.16,'1111122,1111122,1111122' 
COMPS,ioos:station:USF.COMPS:C10:1,2016-05-04T03:35:00Z,27.1690,-82.9260,3.0,2.658,251.251,3.313,'1111122,1111122,1111122' 
COMPS,ioos:station:USF.COMPS:C10:1,2016-05-04T04:05:00Z,27.1690,-82.9260,3.0,1.519,298.539,2.39,'1111122,1111122,1111122' 
COMPS,ioos:station:USF.COMPS:C10:1,2016-05-04T04:35:00Z,27.1690,-82.9260,3.0,1.544,275.776,2.1,'1111122,1111122,1111122' 
COMPS,ioos:station:USF.COMPS:C10:1,2016-05-04T07:05:00Z,27.1690,-82.9260,3.0,2.055,192.357,2.533,'1111122,1111122,1111122' 
COMPS,ioos:station:USF.COMPS:C10:1,2016-05-04T07:35:00Z,27.1690,-82.9260,3.0,3.41,164.312,4.033,'1111122,1111122,1111122' 
COMPS,ioos:station:USF.COMPS:C10:1,2016-05-04T08:05:00Z,27.1690,-82.9260,3.0,4.992,178.137,6.04,'1111122,1111122,1111122' 
COMPS,ioos:station:USF.COMPS:C10:1,2016-05-04T08:35:00Z,27.1690,-82.9260,3.0,4.844,178.36,5.823,'1111122,1111122,1111122' 
COMPS,ioos:station:USF.COMPS:C10:1,2016-05-04T09:05:00Z,27.1690,-82.9260,3.0,3.908,176.809,4.913,'1111122,1111122,1111122' 
COMPS,ioos:station:USF.COMPS:C10:1,2016-05-04T09:35:00Z,27.1690,-82.9260,3.0,4.138,184.374,5.423,'1111122,1111122,1111122' 
COMPS,ioos:station:USF.COMPS:C10:1,2016-05-04T10:05:00Z,27.1690,-82.9260,3.0,4.125,178.109,5.047,'1111122,1111122,1111122' 
COMPS,ioos:station:USF.COMPS:C10:1,2016-05-04T10:35:00Z,27.1690,-82.9260,3.0,5.897,187.979,7.217,'1111122,1111122,1111122' 
COMPS,ioos:station:USF.COMPS:C10:1,2016-05-04T11:05:00Z,27.1690,-82.9260,3.0,5.297,187.704,6.233,'1111122,1111122,1111122' 
COMPS,ioos:station:USF.COMPS:C10:1,2016-05-04T11:35:00Z,27.1690,-82.9260,3.0,4.808,182.033,5.627,'1111122,1111122,1111122' 
COMPS,ioos:station:USF.COMPS:C10:1,2016-05-04T12:05:00Z,27.1690,-82.9260,3.0,6.52,193.075,8.05,'1111122,1111122,1111122' 
COMPS,ioos:station:USF.COMPS:C10:1,2016-05-04T12:35:00Z,27.1690,-82.9260,3.0,6.955,200.439,8.69,'1111122,1111122,1111122' 
COMPS,ioos:station:USF.COMPS:C10:1,2016-05-04T13:05:00Z,27.1690,-82.9260,3.0,5.471,201.635,7.173,'1111122,1111122,1111122' 
COMPS,ioos:station:USF.COMPS:C10:1,2016-05-04T13:35:00Z,27.1690,-82.9260,3.0,4.572,186.694,6.157,'1111122,1111122,1111122' 
COMPS,ioos:station:USF.COMPS:C10:1,2016-05-04T17:05:00Z,27.1690,-82.9260,3.0,1.783,50.907,3.24,'1111122,1111122,1111122' 
COMPS,ioos:station:USF.COMPS:C10:1,2016-05-04T17:35:00Z,27.1690,-82.9260,3.0,4.354,64.379,5.683,'1111122,1111122,1111122' 
COMPS,ioos:station:USF.COMPS:C10:1,2016-05-04T18:05:00Z,27.1690,-82.9260,3.0,6.823,115.88,8.767,'1111122,1111122,1111122' 
COMPS,ioos:station:USF.COMPS:C10:1,2016-05-04T18:35:00Z,27.1690,-82.9260,3.0,6.212,124.679,8.097,'1111122,1111122,1111122' 
COMPS,ioos:station:USF.COMPS:C10:1,2016-05-04T19:05:00Z,27.1690,-82.9260,3.0,7.235,133.656,9.357,'1111122,1111122,1111122' 
COMPS,ioos:station:USF.COMPS:C10:1,2016-05-04T19:35:00Z,27.1690,-82.9260,3.0,7.836,138.356,9.653,'1111122,1111122,1111122' 
COMPS,ioos:station:USF.COMPS:C10:1,2016-05-04T20:05:00Z,27.1690,-82.9260,3.0,7.146,166.566,8.357,'1111122,1111122,1111122' 
COMPS,ioos:station:USF.COMPS:C10:1,2016-05-04T20:35:00Z,27.1690,-82.9260,3.0,7.982,177.59,9.57,'1111122,1111122,1111122' 
COMPS,ioos:station:USF.COMPS:C10:1,2016-05-04T21:05:00Z,27.1690,-82.9260,3.0,10.211,185.284,12.14,'1111122,1111122,1111122' 
COMPS,ioos:station:USF.COMPS:C10:1,2016-05-04T21:35:00Z,27.1690,-82.9260,3.0,10.343,196.188,14.29,'1111122,1111122,1111122' 
COMPS,ioos:station:USF.COMPS:C10:1,2016-05-04T22:05:00Z,27.1690,-82.9260,3.0,9.416,271.808,12.553,'1111122,1111122,1111122' 
COMPS,ioos:station:USF.COMPS:C10:1,2016-05-04T22:35:00Z,27.1690,-82.9260,3.0,10.948,287.264,13.357,'1111122,1111122,1111122' 
COMPS,ioos:station:USF.COMPS:C10:1,2016-05-04T23:05:00Z,27.1690,-82.9260,3.0,8.696,316.917,10.85,'1111122,1111122,1111122' 
COMPS,ioos:station:USF.COMPS:C10:1,2016-05-04T23:35:00Z,27.1690,-82.9260,3.0,10.608,322.375,12.863,'1111122,1111122,1111122' 
COMPS,ioos:station:USF.COMPS:C10:1,2016-05-05T00:05:00Z,27.1690,-82.9260,3.0,11.639,327.843,13.913,'1111122,1111122,1111122' 
COMPS,ioos:station:USF.COMPS:C10:1,2016-05-05T00:35:00Z,27.1690,-82.9260,3.0,11.273,327.317,13.627,'1111122,1111122,1111122' 
COMPS,ioos:station:USF.COMPS:C10:1,2016-05-05T02:05:00Z,27.1690,-82.9260,3.0,9.209,330.713,11.417,'1111122,1111122,1111122' 
COMPS,ioos:station:USF.COMPS:C10:1,2016-05-05T02:35:00Z,27.1690,-82.9260,3.0,9.79,323.681,12.66,'1111122,1111122,1111122' 
COMPS,ioos:station:USF.COMPS:C10:1,2016-05-05T03:05:00Z,27.1690,-82.9260,3.0,9.966,315.585,12.56,'1111122,1111122,1111122' 
COMPS,ioos:station:USF.COMPS:C10:1,2016-05-05T03:35:00Z,27.1690,-82.9260,3.0,10.255,314.997,12.773,'1111122,1111122,1111122' 
COMPS,ioos:station:USF.COMPS:C10:1,2016-05-05T04:05:00Z,27.1690,-82.9260,3.0,10.368,315.603,13.51,'1111122,1111122,1111122' 
COMPS,ioos:station:USF.COMPS:C10:1,2016-05-05T04:35:00Z,27.1690,-82.9260,3.0,10.5,308.832,12.74,'1111122,1111122,1111122' 
COMPS,ioos:station:USF.COMPS:C10:1,2016-05-05T10:05:00Z,27.1690,-82.9260,3.0,8.162,335.266,10.283,'1111122,1111122,1111122' 
COMPS,ioos:station:USF.COMPS:C10:1,2016-05-05T10:35:00Z,27.1690,-82.9260,3.0,8.542,342.388,11.12,'1111122,1111122,1111122' 
COMPS,ioos:station:USF.COMPS:C10:1,2016-05-05T12:05:00Z,27.1690,-82.9260,3.0,7.977,348.391,11.043,'1111122,1111122,1111122' 
COMPS,ioos:station:USF.COMPS:C10:1,2016-05-05T12:35:00Z,27.1690,-82.9260,3.0,8.231,342.785,10.353,'1111122,1111122,1111122' 
COMPS,ioos:station:USF.COMPS:C10:1,2016-05-05T13:05:00Z,27.1690,-82.9260,3.0,8.458,339.179,10.65,'1111122,1111122,1111122' 
COMPS,ioos:station:USF.COMPS:C10:1,2016-05-05T13:35:00Z,27.1690,-82.9260,3.0,8.142,332.551,10.55,'1111122,1111122,1111122' 
COMPS,ioos:station:USF.COMPS:C10:1,2016-05-05T17:05:00Z,27.1690,-82.9260,3.0,6.191,310.062,7.663,'1111122,1111122,1111122' 
COMPS,ioos:station:USF.COMPS:C10:1,2016-05-05T17:35:00Z,27.1690,-82.9260,3.0,5.773,307.045,7.353,'1111122,1111122,1111122' 
COMPS,ioos:station:USF.COMPS:C10:1,2016-05-05T18:05:00Z,27.1690,-82.9260,3.0,5.169,300.727,6.753,'1111122,1111122,1111122' 
COMPS,ioos:station:USF.COMPS:C10:1,2016-05-05T18:35:00Z,27.1690,-82.9260,3.0,5.099,289.514,6.677,'1111122,1111122,1111122' 
COMPS,ioos:station:USF.COMPS:C10:1,2016-05-05T19:05:00Z,27.1690,-82.9260,3.0,4.854,289.886,6.157,'1111122,1111122,1111122' 
COMPS,ioos:station:USF.COMPS:C10:1,2016-05-05T19:35:00Z,27.1690,-82.9260,3.0,5.017,291.854,6.367,'1111122,1111122,1111122' 
COMPS,ioos:station:USF.COMPS:C10:1,2016-05-05T20:05:00Z,27.1690,-82.9260,3.0,4.884,314.064,7.273,'1111122,1111122,1111122' 